Notices

What's New in latest Release from April 7th, 2021:

- Updated Glossary, including Speed of Maximum Gust, and Total Hourly Precipitation

- Updated national and regional climate services offices contacts and prices information

- Addition of station inventory lists for 1981-2010, 1971-2000, and 1961-1990 Normals.

If you haven't already, please take our survey and provide feedback about our website: https://eccc.sondage-survey.ca/f/LanguageSelection.aspx?s=442ca660-fcf1-47c0-95a9-59707d6fd709

Hourly Data Report for August 30, 2019

TORONTO CITY
ONTARIO
Current Station Operator: ECCC - MSC

43°40'00.000" N
79°24'00.000" W
112.50 m
6158355
71508
XTO

Download Data

Hourly Data (August 2019)
Hourly Data Report for August 30, 2019
TIME
LST
Temp Definition
°C
Dew Point Definition
°C
Rel Hum Definition
%
Precip. Amount Definition
mm

Wind Dir Definition
10's deg

Wind Spd Definition
km/h
Visibility Definition
km
Stn Press Definition
kPa
Hmdx Definition


Wind Chill Definition


Weather Definition


00:00 21.4 16.2 72 0.0       99.56 26   LegendNANA
01:00 21.6 15.6 69 0.0       99.47 26   LegendNANA
02:00 22.0 15.4 66 0.0       99.43 26   LegendNANA
03:00 22.1 14.3 61 0.0       99.54 26   LegendNANA
04:00 20.0 9.7 51 0.0       99.69     LegendNANA
05:00 18.7 8.6 52 0.0       99.77     LegendNANA
06:00 17.3 10.5 64 0.0       99.88     LegendNANA
07:00 17.9 12.0 68 0.0       100.00     LegendNANA
08:00 19.2 11.6 61 0.0       100.08     LegendNANA
09:00 20.0 11.7 59 0.0       100.15     LegendNANA
10:00 21.4 10.2 49 0.0       100.19     LegendNANA
11:00 22.9 7.6 37 0.0       100.24     LegendNANA
12:00 23.5 6.3 33 0.0       100.25     LegendNANA
13:00 23.6 6.2 32 0.0       100.25     LegendNANA
14:00 24.0 5.1 29 0.0       100.24     LegendNANA
15:00 23.4 5.2 31 0.0       100.29     LegendNANA
16:00 23.1 5.2 31 0.0       100.35     LegendNANA
17:00 22.5 4.9 32 0.0       100.42     LegendNANA
18:00 21.5 4.9 34 0.0       100.48     LegendNANA
19:00 20.2 4.4 35 0.0       100.57     LegendNANA
20:00 19.2 3.9 36 0.0       100.65     LegendNANA
21:00 17.6 4.5 42 0.0       100.69     LegendNANA
22:00 16.6 5.5 48 0.0       100.74     LegendNANA
23:00 16.0 7.4 57 0.0       100.76     LegendNANA

Notes on Data Quality.

Legend

  • E = Estimated
  • M = Missing
  • NA = Not Available*
  • [empty] = Indicates an unobserved value
Date modified: